Flag for Poland Weather past 2 weeks in Gdynia, Poland

Now
70 °F

Partly sunny.


Feels Like: 70 °F
Forecast: 59 / 74 °F
Wind: 7 mph from Northwest

Location: Gdansk-Rebiechowo

Current Time: Jul 31, 2014 at 6:19:22 AM

Latest Report: Jul 31, 2014 at 6:00 AM


Visibility: N/A

Pressure: 29.77 "Hg

Humidity: 88%

Dew point: 66 °F

Location of GdyniaLocation

Historic Weather in Gdynia — Graph

°F

Gdynia temperature yesterday

Maximum temperature yesterday: 86 °F (at 1:30 PM)
Minimum temperature yesterday: 66 °F (at 2:30 AM)
Average temperature yesterday: 77 °F

Past Weeks' High & Low Weather Summary

 TemperatureHumidityPressure
High86 °F (Jul 27, 2:00 PM)100% (Jul 18, 6:00 AM)30.21 "Hg (Jul 18, 6:00 AM)
Low52 °F (Jul 19, 5:00 AM)33% (Jul 27, 2:30 PM)29.68 "Hg (Jul 30, 5:00 PM)
Average70 °F71%30.02 "Hg
* Reported Jul 16 5:00 AM — Jul 31 5:30 AM, Gdynia, Weather by CustomWeather, © 2014

Note: Actual official high and low records may vary slightly from our data, if they occured in-between our weather recording intervals... More about our weather records

Advertising

Gdynia weather history for previous 24 hours

 ConditionsComfort  
Time TempWeatherWind HumidityBarometerVisibility
5:30 AM
Jul 31
68 °FPassing clouds.5 mph94%29.74 "HgN/A
5:00 AM68 °FPassing clouds.6 mph94%29.74 "HgN/A
4:30 AM68 °FPassing clouds.9 mph94%29.74 "HgN/A
4:00 AM68 °FClear.7 mph88%29.74 "Hg10 mi
3:30 AM68 °FClear.7 mph88%29.74 "Hg10 mi
3:00 AM68 °FClear.7 mph88%29.74 "Hg10 mi
2:30 AM68 °FClear.5 mph88%29.74 "Hg10 mi
2:00 AM68 °FPassing clouds.5 mph88%29.74 "HgN/A
1:30 AM68 °FClear.3 mph88%29.71 "Hg10 mi
1:00 AM68 °FClear.6 mph88%29.71 "Hg10 mi
12:30 AM68 °FClear.6 mph88%29.71 "Hg10 mi
12:00 AM70 °FClear.5 mph83%29.71 "Hg10 mi
11:30 PM
Jul 30
70 °FClear.6 mph83%29.71 "Hg10 mi
10:30 PM75 °FPassing clouds.6 mph61%29.71 "HgN/A
10:00 PM75 °FClear.2 mph61%29.71 "Hg10 mi
9:30 PM77 °FSunny.2 mph57%29.71 "Hg10 mi
9:00 PM79 °FPassing clouds.3 mph54%29.71 "HgN/A
8:30 PM81 °FPassing clouds.3 mph48%29.68 "HgN/A
8:00 PM81 °FPassing clouds.5 mph48%29.68 "HgN/A
7:30 PM82 °FPassing clouds.7 mph45%29.68 "HgN/A
7:00 PM82 °FPassing clouds.3 mph45%29.68 "HgN/A
6:30 PM84 °FPassing clouds.5 mph40%29.68 "HgN/A
6:00 PM84 °FPassing clouds.8 mph40%29.68 "HgN/A
5:30 PM84 °FPassing clouds.6 mph40%29.71 "HgN/A
5:00 PM84 °FPassing clouds.7 mph37%29.68 "HgN/A
4:30 PM84 °FPassing clouds.10 mph43%29.71 "HgN/A
4:00 PM86 °FSunny.9 mph38%29.71 "Hg10 mi
3:30 PM86 °FSunny.8 mph40%29.71 "Hg10 mi
3:00 PM86 °FPassing clouds.10 mph40%29.71 "HgN/A
2:30 PM86 °FPassing clouds.9 mph40%29.74 "HgN/A
2:00 PM86 °FPassing clouds.8 mph38%29.74 "HgN/A
1:30 PM86 °FPassing clouds.8 mph38%29.74 "HgN/A
1:00 PM84 °FPassing clouds.8 mph43%29.74 "HgN/A
12:30 PM84 °FPassing clouds.9 mph40%29.74 "HgN/A
12:00 PM84 °FSunny.7 mph43%29.74 "Hg10 mi
11:30 AM84 °FSunny.6 mph43%29.74 "Hg10 mi
11:00 AM81 °FPassing clouds.7 mph51%29.74 "HgN/A
10:30 AM79 °FPassing clouds.8 mph58%29.77 "HgN/A
10:00 AM79 °FPassing clouds.8 mph58%29.74 "HgN/A
9:30 AM77 °FPassing clouds.6 mph65%29.74 "HgN/A
9:00 AM75 °FPassing clouds.7 mph65%29.77 "HgN/A
8:30 AM75 °FPassing clouds.6 mph65%29.74 "HgN/A
8:00 AM73 °FPassing clouds.6 mph69%29.77 "HgN/A
7:30 AM73 °FPassing clouds.3 mph69%29.74 "HgN/A
7:00 AM72 °FSunny.2 mph73%29.74 "Hg10 mi
6:30 AM70 °FSunny.2 mph78%29.74 "Hg10 mi
6:00 AM68 °FPassing clouds.5 mph78%29.74 "HgN/A
Weather by CustomWeather, © 2014

See weather overviewHow to use our weather pages